Tracking 30922 objects as of 2-Jul-2025
HD Live streaming from Space Station
objects crossing your sky now

COSMOS 2491 DEB

Track COSMOS 2491 DEB now!
10-day predictions


NORAD ID: 45127
Int'l Code: 2013-076Z
Perigee: 1,345.7 km
Apogee: 1,505.7 km
Inclination: 82.5 °
Period: 114.2 minutes
Semi major axis: 7796 km
RCS: Unknown
Launch date: December 25, 2013
Source: Commonwealth of Independent States (former USSR) (CIS)
Launch site: PLESETSK MISSILE AND SPACE COMPLEX (PKMTR)

Note: This is SATELLITE DEBRIS
Your satellite tracking list
SPACE STATION
STS 117
Track 2 satellite(s)




NASA's NSSDC Master Catalog

Two Line Element Set (TLE):
1 45127U 13076Z   25182.18628254  .00002059  00000-0  11416-1 0  9990
2 45127  82.4542 350.7826 0102587 267.8768  91.0572 12.61065983248980
Source of the keplerian elements: AFSPC